Total_Precipitation_Accumulation
0.57 0.58 0.62 0.67 0.67 0.66 0.64 0.59 0.57 0.57 0.63 0.64 0.61 0.66 0.72 0.73 0.73 0.76 0.73 0.67 0.63 0.58 0.53 0.54 0.53 0.55 0.61 0.60 0.59 0.57 0.57 0.65 0.65 0.26 0.15 0.17 0.23 0.26 0.26 0.23 0.20 0.19 0.21
0.60 0.61 0.62 0.66 0.68 0.69 0.74 0.70 0.65 0.59 0.60 0.65 0.68 0.69 0.76 0.79 0.77 0.79 0.81 0.81 0.83 0.77 0.68 0.62 0.61 0.60 0.64 0.66 0.69 0.68 0.62 0.59 0.65 0.46 0.21 0.19 0.25 0.29 0.31 0.32 0.30 0.25 0.21
0.58 0.62 0.64 0.65 0.68 0.70 0.74 0.80 0.81 0.80 0.79 0.79 0.83 0.85 0.89 0.93 0.92 0.91 0.92 0.98 1.03 1.02 0.97 0.92 0.80 0.76 0.77 0.72 0.73 0.74 0.68 0.61 0.58 0.55 0.36 0.27 0.29 0.32 0.38 0.41 0.41 0.37 0.30
0.55 0.67 0.68 0.68 0.66 0.69 0.75 0.82 0.92 0.99 1.03 1.06 1.10 1.09 1.08 1.15 1.26 1.29 1.26 1.23 1.19 1.15 1.11 1.11 1.07 1.00 0.97 0.93 0.92 0.86 0.81 0.79 0.71 0.68 0.55 0.41 0.38 0.38 0.47 0.51 0.51 0.48 0.43
0.49 0.60 0.66 0.71 0.78 0.85 0.87 0.89 0.94 1.07 1.13 1.11 1.13 1.14 1.12 1.30 1.61 1.73 1.56 1.32 1.16 1.09 1.05 1.06 1.12 1.21 1.21 1.22 1.27 1.14 1.03 1.05 0.98 0.90 0.74 0.58 0.48 0.49 0.56 0.58 0.68 0.63 0.57
0.42 0.52 0.60 0.74 0.85 0.98 0.99 1.02 1.03 1.07 1.15 1.14 1.09 1.06 1.07 1.19 1.56 1.69 1.37 1.05 0.92 0.95 0.97 0.91 0.92 1.06 1.11 1.14 1.25 1.25 1.25 1.31 1.30 1.19 1.03 0.87 0.66 0.60 0.64 0.77 0.88 0.97 0.87
0.38 0.48 0.54 0.67 0.80 0.91 0.93 0.96 0.97 0.90 0.90 0.98 1.02 0.93 0.90 0.99 1.32 1.41 1.10 0.75 0.64 0.69 0.74 0.75 0.73 0.79 0.94 0.92 0.96 0.98 1.04 1.17 1.33 1.39 1.34 1.09 0.87 0.77 0.87 0.97 0.99 1.08 1.00
0.34 0.46 0.49 0.58 0.70 0.76 0.82 0.86 0.87 0.77 0.76 0.86 0.86 0.76 0.68 0.72 1.05 1.21 0.98 0.64 0.57 0.61 0.64 0.66 0.65 0.65 0.78 0.95 1.00 0.88 0.80 0.89 1.12 1.28 1.40 1.25 1.08 1.04 1.20 1.36 1.41 1.39 1.25
0.30 0.39 0.44 0.50 0.64 0.66 0.71 0.80 0.79 0.78 0.75 0.71 0.71 0.66 0.59 0.59 0.84 1.13 1.01 0.64 0.62 0.61 0.60 0.64 0.60 0.54 0.74 0.92 0.94 0.85 0.72 0.72 0.85 1.10 1.25 1.26 1.25 1.34 1.51 1.75 1.88 1.93 1.77
0.25 0.31 0.35 0.39 0.51 0.54 0.56 0.63 0.66 0.67 0.67 0.64 0.62 0.59 0.57 0.53 0.68 1.05 1.11 0.72 0.66 0.61 0.59 0.60 0.68 0.67 0.79 0.85 0.79 0.81 0.82 0.72 0.64 0.68 0.75 0.82 0.87 0.97 1.24 1.50 1.69 1.92 1.92
0.21 0.25 0.29 0.33 0.38 0.43 0.48 0.52 0.57 0.58 0.59 0.60 0.60 0.54 0.48 0.48 0.54 0.82 1.17 0.94 0.73 0.63 0.61 0.61 0.59 0.71 0.77 0.79 0.79 0.80 0.92 0.80 0.67 0.71 0.71 0.70 0.73 0.82 0.95 1.17 1.46 1.74 1.95
0.18 0.22 0.27 0.31 0.33 0.37 0.41 0.47 0.49 0.55 0.62 0.63 0.60 0.56 0.48 0.45 0.50 0.68 0.94 1.06 0.91 0.70 0.65 0.52 0.49 0.63 0.69 0.75 0.74 0.79 0.83 0.81 0.77 0.78 0.75 0.70 0.71 0.78 0.86 0.98 1.20 1.44 1.60
0.18 0.20 0.26 0.30 0.29 0.35 0.41 0.47 0.50 0.55 0.64 0.65 0.61 0.57 0.50 0.48 0.54 0.71 0.73 0.80 0.90 0.79 0.74 0.74 0.63 0.63 0.65 0.60 0.63 0.72 0.73 0.69 0.78 0.79 0.69 0.62 0.63 0.72 0.77 0.86 0.96 1.16 1.34
0.18 0.20 0.24 0.30 0.31 0.31 0.37 0.46 0.51 0.54 0.67 0.72 0.68 0.63 0.54 0.51 0.61 0.81 0.75 0.69 0.78 0.81 0.79 0.78 0.73 0.71 0.67 0.60 0.60 0.59 0.56 0.59 0.67 0.68 0.61 0.54 0.54 0.62 0.72 0.83 0.97 1.09 1.28
0.20 0.21 0.25 0.31 0.35 0.33 0.35 0.41 0.47 0.48 0.65 0.80 0.73 0.73 0.70 0.71 0.79 0.97 0.94 0.88 0.89 0.90 0.90 0.87 0.79 0.73 0.72 0.65 0.57 0.51 0.49 0.54 0.60 0.56 0.56 0.57 0.57 0.62 0.68 0.76 0.95 1.09 1.26
0.24 0.25 0.27 0.33 0.36 0.36 0.37 0.39 0.44 0.44 0.51 0.54 0.59 0.67 0.67 0.77 0.83 0.78 0.83 0.87 0.89 0.91 0.90 0.87 0.70 0.61 0.62 0.58 0.54 0.51 0.47 0.46 0.47 0.51 0.55 0.57 0.59 0.64 0.69 0.73 0.88 1.04 1.14
0.25 0.28 0.31 0.35 0.36 0.37 0.36 0.38 0.42 0.41 0.43 0.45 0.49 0.56 0.67 0.75 0.70 0.69 0.76 0.77 0.76 0.74 0.71 0.61 0.54 0.54 0.55 0.54 0.52 0.50 0.47 0.41 0.42 0.49 0.51 0.52 0.55 0.61 0.66 0.70 0.75 0.88 1.00
0.24 0.29 0.34 0.37 0.38 0.35 0.33 0.35 0.39 0.43 0.48 0.50 0.54 0.59 0.65 0.71 0.69 0.69 0.76 0.80 0.77 0.67 0.56 0.52 0.51 0.50 0.51 0.53 0.54 0.53 0.50 0.45 0.46 0.49 0.49 0.49 0.53 0.60 0.64 0.64 0.67 0.79 0.89
0.27 0.30 0.35 0.38 0.38 0.33 0.31 0.33 0.35 0.38 0.45 0.53 0.60 0.68 0.72 0.72 0.70 0.70 0.70 0.67 0.63 0.58 0.54 0.50 0.47 0.47 0.49 0.53 0.54 0.53 0.55 0.54 0.50 0.51 0.50 0.48 0.50 0.57 0.60 0.56 0.60 0.71 0.84
0.30 0.38 0.43 0.42 0.40 0.36 0.33 0.35 0.37 0.39 0.44 0.51 0.59 0.65 0.75 0.80 0.75 0.72 0.63 0.57 0.60 0.59 0.56 0.54 0.49 0.47 0.52 0.56 0.59 0.60 0.60 0.55 0.52 0.51 0.48 0.45 0.45 0.50 0.53 0.52 0.56 0.64 0.72
0.34 0.37 0.44 0.44 0.42 0.40 0.40 0.41 0.42 0.44 0.49 0.52 0.55 0.61 0.83 0.84 0.71 0.59 0.54 0.53 0.56 0.58 0.57 0.56 0.55 0.55 0.57 0.60 0.60 0.58 0.58 0.53 0.50 0.50 0.48 0.45 0.44 0.45 0.45 0.48 0.51 0.56 0.62
0.36 0.38 0.37 0.40 0.44 0.47 0.49 0.48 0.47 0.48 0.50 0.54 0.53 0.56 0.67 0.64 0.58 0.53 0.50 0.48 0.49 0.53 0.57 0.61 0.60 0.57 0.59 0.63 0.64 0.61 0.54 0.48 0.44 0.44 0.44 0.42 0.41 0.41 0.42 0.45 0.47 0.51 0.57
0.37 0.41 0.41 0.41 0.45 0.51 0.50 0.45 0.47 0.50 0.55 0.57 0.55 0.56 0.56 0.58 0.56 0.52 0.51 0.49 0.49 0.49 0.51 0.58 0.61 0.56 0.53 0.56 0.59 0.62 0.59 0.49 0.41 0.42 0.47 0.45 0.41 0.38 0.39 0.42 0.42 0.47 0.53
0.39 0.40 0.43 0.46 0.49 0.50 0.50 0.49 0.50 0.52 0.58 0.62 0.62 0.59 0.57 0.57 0.56 0.51 0.48 0.49 0.50 0.48 0.49 0.53 0.55 0.52 0.50 0.54 0.56 0.53 0.51 0.50 0.51 0.51 0.48 0.46 0.43 0.40 0.42 0.43 0.41 0.43 0.50
0.37 0.39 0.43 0.49 0.53 0.53 0.54 0.55 0.56 0.57 0.61 0.65 0.65 0.62 0.59 0.56 0.53 0.51 0.48 0.49 0.51 0.50 0.47 0.49 0.52 0.52 0.50 0.49 0.52 0.52 0.54 0.59 0.65 0.73 0.79 0.78 0.65 0.53 0.51 0.50 0.45 0.44 0.49
0.36 0.39 0.44 0.51 0.56 0.57 0.59 0.62 0.60 0.61 0.66 0.66 0.63 0.62 0.60 0.58 0.55 0.53 0.53 0.53 0.55 0.53 0.49 0.47 0.48 0.52 0.51 0.49 0.49 0.53 0.58 0.62 0.73 0.92 1.11 1.14 0.89 0.64 0.55 0.55 0.50 0.49 0.51